Back to catalog

STARLINK-5334

AliveCommunicationsVLEO
NORAD 56509·PAYLOAD·🇺🇸 United States

Launched May 14, 2023 from Cape Canaveral Space Force Station

Loading…

Next Passes (next 24 hours)

TLE

FreshSource: CelesTrak SupGP

Epoch: Sep 14, 2026, 13:25 UTC

1 56509C 23065G   26257.55951389 -.00031047  00000+0 -11245-2 0  2576
2 56509  42.9997 225.6098 0001185 263.5109 241.4245 15.27594638    13

Track STARLINK-5334 in real time with AllMySat

Download on the App Store